Terminal Aerodrome Forecast
Issued by NWS

Home | Current Version | Previous Version | Graphics & Text | Print | Product List | Glossary On
Versions: 1 2 3 4 5 6 7 8 9 10 11 12 13 14 15 16 17 18 19 20 21 22 23 24 25 26 27
000
FTUS45 KGGW 212300
TAFOLF
TAF
KOLF 212322Z 2200/2224 26007KT P6SM SCT005 BKN250
     FM221300 VRB04KT P6SM VCSH SCT050 BKN090
     FM222100 27008KT P6SM SCT150 BKN200=

USA.gov is the U.S. government's official web portal to all federal, state and local government web resources and services.